Location: Unspecified
(40.7945°N, 0.0000°E)
Time: 17:42:18
(UTC+00:00)

Courier 1B - Pass Details

Date: 25 January 2021
Orbit: 962 x 1209 km, 28.3° (Epoch: 07 March)

Event Time Altitude Azimuth Distance (km) Brightness Sun altitude
Rises 23:52:38 0° 237° (WSW) 3,730 - -67.8°
Reaches altitude 10° 23:55:49 10° 225° (SW) 2,747 - -67.9°
Maximum altitude 00:01:03 25° 172° (S) 1,841 - -68.0°
Drops below altitude 10° 00:06:10 10° 120° (ESE) 2,687 - -68.1°
Sets 00:09:15 0° 107° (ESE) 3,633 - -68.2°
